Terminal Aerodrome Forecast
Issued by NWS Rapid City, SD

Home | Current Version | Previous Version | Graphics & Text | Print | Product List | Glossary On
Versions: 1 2 3 4 5 6 7 8 9 10 11 12 13 14 15 16 17 18
000
FTUS43 KUNR 232320
TAFRAP
TAF
KRAP 232320Z 2400/2424 04014KT P6SM -SHRA SCT040 OVC100
     FM240100 36020G30KT 3SM -SHRA BR SCT020 OVC040
     FM240300 34033G45KT 6SM -SHRA BR OVC015
     FM240900 34030G40KT 2SM -SN BR OVC012
     FM241500 34024G35KT 6SM -SHRASN OVC020
     FM241900 35018KT P6SM SCT020 BKN035=

USA.gov is the U.S. government's official web portal to all federal, state and local government web resources and services.